DB-WALI-WMU

导读

当前公开可查信息中暂未检索到DB-WALI-WMU(NORAD 68443)卫星的明确公开资料。NORAD编号是北美防空司令部为轨道人造物体分配的唯一识别标识,可用于卫星轨道跟踪与查询,目前该编号对应的卫星相关参数、所属主体、发射背景及任务用途等信息尚未向公众披露,若需了解其具体信息可通过CelesTrak等专业航天数据库后续更新的轨道数据或官方发布的航天任务公告进一步查询核实。

基本信息
目录编号:
68443
目录名称:
DB-WALI-WMU
国际标识:
2026-067AD
轨道中心:
EARTH
卫星名称:
DB-WALI-WMU
卫星全名:
DB-WALI-WMU
卫星状态:
在轨 (已飞行159 天)
发射日期:
2026-03-30 UTC
国别 :
美国 (US)
星等 :
--
轨道信息
数据来源 国际轨道数据
星历时间: 2026-09-04T16:26:41+0800
1天前
查看轨道信息
半长轴: 6889.349km
偏心率: 0.0005542
轨道倾角: 97.463°
近地点辐角 138.056°
升交点赤经 204.589°
平近点角 222.110°
近地点: 507.393km
远地点: 515.031km
周期: 94.848分钟
每日圈数: 15.182229
详细信息
使用方式:
暂无
2D轨道图
3D轨道图
轨道高度分析图
轨道倾角分析图
轨道综合分析图
查看轨道综合分析图
交会数据列表
事件ID 空间交会对象 最接近时刻(TCA) 交会距离 交会风险概率(CRP) 交会风险指数(CRI) 操作
CDM_260907-015205-699506-844323
2026-09-07T
01:52:55+0000
2.087 km
极远距离
2.586981E-6 低风险 0.43
CDM_260905-141004-946706-844325
AVUM R/B (49467)
2026-09-05T
14:10:47+0000
2.518 km
极远距离
1.326191E-6 低风险 0.37
CDM_260906-230905-233106-844321
2026-09-06T
23:09:34+0000
2.913 km
极远距离
1.192685E-6 低风险 0.37
CDM_260902-055806-844306-857921
2026-09-02T
05:58:49+0000
2.533 km
极远距离
1.139033E-6 低风险 0.36